Regional Weather Roundup
Issued by NWS Jackson, KY

Home | Current Version | Previous Version | Text Only | Print | Product List | Glossary On
Versions: 1 2 3 4 5 6 7 8 9 10 11 12 13 14 15 16 17 18 19 20 21 22 23 24 25 26 27 28 29 30 31 32 33 34 35 36 37 38 39 40 41 42 43 44 45 46 47 48 49 50
000
ASUS43 KJKL 261719
RWRJKL

EAST KENTUCKY HOURLY WEATHER ROUNDUP
NATIONAL WEATHER SERVICE JACKSON KY
100 PM EDT SAT JUL 26 2014

NOTE: "FAIR" INDICATES FEW OR NO CLOUDS BELOW 12,000 FEET WITH
NO SIGNIFICANT WEATHER AND/OR OBSTRUCTIONS TO VISIBILITY.

* THESE REPORTS ARE NOT UNDER NWS QUALITY CONTROL AND MAY NOT
  REPORT WEATHER SUCH AS PRECIPITATION AND FOG.

KYZ079-080-083-085-087-088-110-112-115-119-120-261800
...EASTERN KENTUCKY...

CITY           SKY/WX    TMP DP  RH WIND       PRES   REMARKS
JACKSON        CLOUDY    75  64  68 CALM      30.06F
LONDON         CLOUDY    78  63  59 VRB5      30.08F
SOMERSET*      CLOUDY    79  63  57 S3        30.06F
MONTICELLO*    CLOUDY    82  67  60 SW9       30.07F
WILLIAMSBURG*  SUNNY     77  66  69 CALM      30.06F
MIDDLESBORO*   CLOUDY    80  64  56 CALM      30.08S
HARLAN APT*    CLOUDY    77  61  57 MISG      30.10F
BLACK MTN*       N/A     68  59  73 N3          N/A
PIKEVILLE APT* MOSUNNY   77  64  65 S5        30.06F
BIG SANDY*     CLOUDY    79  66  64 S9        30.04F
MOREHEAD APT*    N/A     79  66  65 SW10G20   30.04R
ASHLAND*       SUNNY     81  63  54 S9        29.96F
$$

KYZ035-036-041-042-044-050-067-078-099-261800
...CENTRAL KENTUCKY...

CITY           SKY/WX    TMP DP  RH WIND       PRES   REMARKS
MT STERLING*   CLOUDY    77  66  69 W8        30.04R
FLEMING/MASON* PTSUNNY   81  65  58 SW14G21   30.01F
DANVILLE*      PTSUNNY   79  66  65 S13       30.02F
RICHMOND*      PTSUNNY   77  64  65 S7        30.02F
LEXINGTON      LGT RAIN  79  65  62 SW12      30.02S
FRANKFORT      PTSUNNY   81  66  60 SW10      29.99R
$$

KYZ091>093-OHZ055-061-077-WVZ005-015-034-035-042-261800
...SOUTHERN OHIO/WEST VIRGINIA...

CITY           SKY/WX    TMP DP  RH WIND       PRES   REMARKS
COVINGTON      CLOUDY    75  65  70 SW10      29.97F
COLUMBUS       MOSUNNY   83  61  47 SW14G20   29.95F
DAYTON         CLOUDY    77  65  66 SW13      29.95F
WILMINGTON     PTSUNNY   78  63  59 SW15      29.96F
HUNTINGTON     MOSUNNY   77  64  64 S8        29.99F
CHARLESTON     MOSUNNY   81  63  54 W7        30.02F
PINEVILLE*     PTSUNNY   81  66  61 MISG      30.13F
BECKLEY        MOSUNNY   78  54  43 W10       30.11S
BLUEFIELD      SUNNY     79  56  45 W8        30.14S
$$

VAZ002-007-008-TNZ017-027-036-066-071-261800
...SOUTHWEST VIRGINIA/EAST TENNESSEE...

CITY           SKY/WX    TMP DP  RH WIND       PRES   REMARKS
WISE*          CLOUDY    77  59  53 N6        30.16S
JONESVILLE*    CLOUDY    79  64  61 CALM      30.11S
ABINGDON*      MOSUNNY   80  62  52 NW6       30.11F
BRISTOL        PTSUNNY   80  61  52 W8        30.09F
KNOXVILLE      PTSUNNY   82  64  54 CALM      30.06F
OAK RIDGE      PTSUNNY   83  64  52 VRB5      30.07F
CROSSVILLE     SUNNY     79  63  57 VRB7      30.11F
NASHVILLE      MOSUNNY   86  65  49 SW7       30.04F
$$

...KEY TO REMARKS...
VSB - VISIBILITY IN MILES
WCI - WIND CHILL INDEX
HX  - HEAT INDEX

$$


USA.gov is the U.S. government's official web portal to all federal, state and local government web resources and services.